Printer-friendly version

IAU Minor Planet Center

Minor Planet Center

MPEC 2008-D38 : 2007 UK126

The following Minor Planet Electronic Circular may be linked-to from your own Web pages, but must not otherwise be redistributed electronically.


Read MPEC 2008-D37 Read MPEC 2008-D39


M.P.E.C. 2008-D38                                Issued 2008 Feb. 26, 20:53 UT

     The Minor Planet Electronic Circulars contain information on unusual
         minor planets and routine data on comets.  They are published
   on behalf of Commission 20 of the International Astronomical Union by the
          Minor Planet Center, Smithsonian Astrophysical Observatory,
                          Cambridge, MA 02138, U.S.A.

             Prepared using the Tamkin Foundation Computer Network

                              MPC@CFA.HARVARD.EDU
          URL http://www.cfa.harvard.edu/iau/mpc.html  ISSN 1523-6714

                                  2007 UK126

Observations:
     K07UC6K  C2006 12 05.34547 03 46 32.17 -04 01 16.8          20.2 R ED038675
     K07UC6K  C2006 12 05.36649 03 46 32.07 -04 01 16.2          20.2 R ED038675
     K07UC6K  C2006 12 12.26859 03 46 03.70 -04 01 24.8          20.2 R ED038675
     K07UC6K  C2006 12 12.29027 03 46 03.61 -04 01 24.9          20.2 R ED038675
     K07UC6K  C2006 12 12.31377 03 46 03.52 -04 01 24.7          20.4 R ED038675
     K07UC6K* C2007 10 19.37909 03 54 41.32 -03 24 09.2          20.4 R ED038675
     K07UC6K  C2007 10 19.42329 03 54 41.17 -03 24 10.3          20.3 R ED038675
     K07UC6K  C2007 10 20.37033 03 54 37.90 -03 24 34.8          20.3 R ED038675
     K07UC6K  C2007 10 20.41657 03 54 37.71 -03 24 36.0          20.4 R ED038675
     K07UC6K  C2007 11 13.23758 03 53 02.99 -03 33 06.9                 ED038675
     K07UC6K  C2007 11 13.29185 03 53 02.71 -03 33 07.6                 ED038675
     K07UC6K  C2007 11 13.34666 03 53 02.49 -03 33 08.7                 ED038675
     K07UC6K  C2007 11 14.20819 03 52 58.77 -03 33 22.4                 ED038675
     K07UC6K  C2007 12 03.15465 03 51 35.89 -03 36 41.8                 ED038675
     K07UC6K  C2007 12 03.20847 03 51 35.64 -03 36 41.8                 ED038675
     K07UC6K  C2007 12 03.26258 03 51 35.42 -03 36 42.2                 ED038675
     K07UC6K  C2007 12 03.31614 03 51 35.18 -03 36 42.6                 ED038675
     K07UC6K  C2008 01 14.12616 03 49 08.97 -03 31 12.5                 ED038675
     K07UC6K  C2008 01 15.09397 03 49 06.81 -03 30 52.1                 ED038675

Observer details:
675 Palomar Mountain.  Observers M. E. Schwamb, M. E. Brown, D. Rabinowitz.
    1.2-m Oschin Schmidt + CCD.

Orbital elements:
2007 UK126
Epoch 2008 May 14.0 TT = JDT 2454600.5                  MPC
M 337.24268              (2000.0)            P               Q
n   0.00163651     Peri.  345.71151     -0.46647173     -0.83253724
a  71.3166152      Node   131.11066     +0.84549653     -0.51892387
e   0.4675918      Incl.   23.36519     +0.25988410     +0.19390661
P 602              H    4.0           G   0.15           U   4
Residuals in seconds of arc
061205 675  0.1-  0.2-    071020 675  0.1+  0.4+    071203 675  0.1-  0.1-
061205 675  0.2-  0.5+    071020 675  0.3-  0.4+    071203 675  0.1+  0.2-
061212 675  0.1+  0.2-    071113 675  0.4+  0.1+    071203 675  0.0   0.3-
061212 675  0.1+  0.3-    071113 675  0.2-  0.3+    080114 675  0.1-  0.5-
061212 675  0.2+  0.1-    071113 675  0.1+  0.0     080115 675  0.0   0.0
071019 675  0.2-  0.2+    071114 675  0.1+  0.0
071019 675  0.1-  0.3+    071203 675  0.1+  0.3-

Ephemeris:
2007 UK126               a,e,i = 71.32, 0.47, 23                 q = 37.970
Date    TT    R. A. (2000) Decl.     Delta      r     Elong.  Phase     V
2008 02 24    03 48.75   -03 11.3   45.992   45.835    80.3     1.2    20.8
2008 03 05    03 49.02   -03 05.2   46.136   45.826    71.2     1.2    20.8
2008 03 15    03 49.43   -02 58.9   46.272   45.816    62.2     1.1    20.8
2008 03 25    03 49.96   -02 52.6   46.393   45.807    53.5     1.0    20.8
2008 04 04    03 50.61   -02 46.6   46.498   45.797    45.1     0.9    20.8
2008 04 14    03 51.36   -02 40.8   46.582   45.787    37.2     0.8    20.8
2008 04 24    03 52.19   -02 35.4   46.644   45.778    30.3     0.6    20.8

Brian G. Marsden             (C) Copyright 2008 MPC           M.P.E.C. 2008-D38

Read MPEC 2008-D37 Read MPEC 2008-D39


Our Web policy. Index to the CBAT/MPC/ICQ pages.


Valid HTML 4.01!